Torna al catalogo

UFO 8

USA 138

AttivoMilitareGEO
NORAD 25258·PAYLOAD·🇺🇸 United States

Lanciato Mar 16, 1998 da Cape Canaveral Space Force Station

Loading…

TLE

AggiornatoSource: Space-Track

Epoca: Sep 14, 2026, 12:55 UTC

1 25258U 98016A   26257.53867788 -.00000223  00000-0  00000-0 0  9998
2 25258  11.2403  22.1899 0005137 231.1941  84.3444  1.00254969104753

Traccia UFO 8 in tempo reale con AllMySat

Download on the App Store